[[{"header":{"parameterUnit":"m.s-1","parameterCategory":1,"la1":30.2991,"la2":30.254,"lo1":-89.0895,"lo2":-89.0444,"dy":0.0017,"dx":0.0017,"nx":28,"ny":28,"refTime":"2023-10-27T03:00:00:Z","depth":0,"parameterNumber":2,"parameterNumberName":"U-component_of_WINDS"},"data":[0,0,0,0,0,0,0,0,0,0,0,0,0,0,0,0,0,0,0,0,0,0,0,0,0,0,0,0,0,0,0,0,0,0,0,0,0,0,0,0,0,0,0,0,0,0,0,0,0,0,0,0,0,0,0,0,0,0,-5.7456,-5.7457,0,-5.7531,-5.7531,-5.7532,-5.7435,-5.7432,-5.7428,-5.7425,-5.7494,-5.7499,-5.7504,0,0,0,0,0,0,0,0,0,0,0,0,0,-5.7227,-5.7232,-5.7456,-5.7457,-5.7458,-5.7531,-5.7532,-5.7533,-5.7436,-5.7432,-5.7427,-5.7423,-5.7493,-5.7499,-5.7505,0,0,0,0,0,0,0,0,0,0,0,0,0,-5.7316,-5.7233,-5.7456,-5.7419,-5.7416,-5.753,-5.7532,-5.7533,-5.7437,-5.7432,-5.7426,-5.7421,-5.7491,-5.7498,-5.7506,-5.7658,0,0,-5.7529,-5.7532,0,0,0,0,0,0,0,0,-5.7311,-5.7325,-5.7423,-5.7422,-5.7419,-5.7469,-5.7476,-5.7574,-5.7438,-5.7429,-5.7425,-5.7419,-5.749,-5.7497,-5.7522,-5.7661,-5.7664,-5.753,-5.7534,-5.7538,-5.754,0,0,0,0,0,0,0,-5.7305,-5.7321,-5.7485,-5.7425,-5.7422,-5.7397,-5.7404,-5.7494,-5.7487,-5.7429,-5.7422,-5.7433,-5.7487,-5.7515,-5.7523,-5.7665,-5.7529,-5.7536,-5.7541,-5.7544,-5.7934,-5.7939,0,0,0,0,0,0,-5.7304,-5.7317,-5.7483,-5.7488,-5.7351,-5.7406,-5.7413,-5.7458,-5.7486,-5.7486,-5.7437,-5.7428,-5.7504,-5.7514,-5.7525,-5.7705,-5.7537,-5.7545,-5.7549,-5.7928,-5.7935,-5.7941,0,0,0,0,0,0,-5.73,-5.732,-5.748,-5.7401,-5.7419,-5.7415,-5.7466,-5.7462,-5.7489,-5.7492,-5.749,-5.7467,-5.7501,-5.7514,-5.7626,-5.7706,-5.7548,-5.7555,-5.7921,-5.793,-5.7938,-5.8065,0,0,0,0,0,0,-5.7294,-5.7319,-5.7377,-5.7403,-5.7424,-5.7581,-5.7471,-5.7467,-5.7504,-5.7493,-5.752,-5.7519,-5.7498,-5.7615,-5.7634,-5.7713,-5.7561,-5.7914,-5.7925,-5.7935,-5.8054,-5.8077,-5.8097,0,0,0,0,0,-5.7286,-5.7408,-5.7381,-5.7401,-5.7497,-5.7586,-5.7598,-5.7572,-5.7511,-5.7568,-5.7571,-5.7518,-5.7695,-5.7628,-5.7648,-5.7731,-5.7908,-5.7922,-5.7934,-5.8044,-5.8073,-5.8097,0,0,0,0,0,0,-5.7388,-5.741,-5.738,-5.7515,-5.755,-5.757,-5.7641,-5.7603,-5.7654,-5.7641,-5.7606,-5.7613,-5.7733,-5.7743,-5.7668,-5.788,-5.7791,-5.7809,-5.7868,-5.7895,-5.7916,-5.7909,-5.7567,0,0,0,0,0,-5.7428,-5.75,-5.7515,-5.7632,-5.7652,-5.7645,-5.7682,-5.7661,-5.7694,-5.7707,-5.7718,-5.7751,-5.7814,-5.7856,-5.7914,-5.8057,-5.8061,-5.8124,-5.8146,-5.8164,-5.8178,-5.8254,-5.8282,-5.7984,-5.7983,-5.7983,0,0,-5.7507,-5.7528,-5.7575,-5.7654,-5.7678,-5.7752,-5.7657,-5.7739,-5.7794,-5.7719,-5.7825,-5.7835,-5.787,-5.7998,-5.8055,-5.8011,-5.8262,-5.818,-5.8194,-5.8199,-5.827,-5.8299,-5.8324,-5.7992,-5.7991,-5.7989,0,0,-5.7689,-5.7714,-5.7815,-5.7843,-5.7883,-5.7878,-5.7903,-5.793,-5.7934,-5.8042,-5.7988,-5.8052,-5.8161,-5.8188,-5.8217,-5.8417,-5.8369,-5.8437,-5.8548,-5.8623,-5.8646,-5.8667,-5.8736,-5.8762,-5.8452,-5.8452,-5.8452,0,-5.7782,-5.7894,-5.787,-5.7958,-5.7994,-5.7935,-5.8036,-5.8064,-5.812,-5.8145,-5.8096,-5.8234,-5.8253,-5.8387,-5.8437,-5.8462,-5.8488,-5.8431,-5.8646,-5.8666,-5.8685,-5.875,-5.8777,-5.846,-5.8459,-5.8458,-5.8457,0,-5.8005,-5.8085,-5.8161,-5.822,-5.8265,-5.8359,-5.8349,-5.8398,-5.8374,-5.8375,-5.8485,-5.8508,-5.857,-5.8601,-5.8577,-5.8733,-5.8704,-5.8651,-5.856,-5.8721,-5.8782,-5.8807,-5.8471,-5.8468,-5.8466,-5.8464,0,0,-5.8247,-5.8298,-5.8326,-5.8353,-5.8396,-5.8455,-5.8548,-5.8612,-5.8653,-5.8696,-5.8771,-5.8868,-5.8821,-5.8853,-5.8832,-5.8899,-5.9055,-5.8838,-5.8838,-5.8875,-5.9226,-5.9263,-5.9293,-5.9027,-5.9031,-5.9035,-5.9222,0,-5.8428,-5.859,-5.8574,-5.8727,-5.8799,-5.8747,-5.8828,-5.8862,-5.8867,-5.8928,-5.8932,-5.9001,-5.8934,-5.8953,-5.9018,-5.9022,-5.9124,-5.9009,-5.9093,-5.9096,-5.9082,-5.9325,-5.9363,-5.9538,-5.9246,-5.925,-5.9253,0,-5.8659,-5.8714,-5.8875,-5.8909,-5.8939,-5.9012,-5.907,-5.9131,-5.9169,-5.9168,-5.9208,-5.9177,-5.9269,-5.9181,-5.9307,-5.9229,-5.9263,-5.9272,-5.9278,-5.9281,-5.9181,-5.9331,-5.9594,-5.9619,-5.9291,-5.9288,-5.9285,0,-5.8817,-5.8931,-5.9042,-5.9067,-5.9111,-5.9163,-5.9183,-5.9218,-5.9258,-5.931,-5.9336,-5.9397,-5.9429,-5.9477,-5.9463,-5.9401,-5.9592,-5.9503,-5.9591,-5.9591,-5.9629,-5.9626,-5.9897,-5.9658,-5.9658,-5.9657,-5.9657,0,-5.9018,-5.9117,-5.9114,-5.9182,-5.9292,-5.9275,-5.9384,-5.9398,-5.943,-5.9499,-5.9459,-5.9523,-5.9504,-5.9568,-5.9559,-5.9664,-5.9679,-5.9679,-5.9674,-5.968,-5.968,-5.9698,-5.9684,-5.9664,-5.9663,-5.9661,-5.966,0,-5.9209,-5.9212,-5.9329,-5.9364,-5.9375,-5.9455,-5.9483,-5.9546,-5.9551,-5.9639,-5.9658,-5.9663,-5.9737,-5.9731,-5.9813,-5.9806,-5.9936,-5.9918,-5.9923,-5.9918,-6.0005,-5.9996,-6.0294,-6.0332,-6.0073,-6.0075,-6.0077,0,-5.9335,-5.9411,-5.9456,-5.9501,-5.9526,-5.9598,-5.9641,-5.9628,-5.9674,-5.9727,-5.9784,-5.9856,-5.9911,-6.0032,-6.0041,-6.0105,-6.0086,-6.0187,-6.0095,-6.0099,-6.0084,-6.0078,-6.0085,-6.0203,-6.0206,-6.0208,-6.021,0,-5.9557,-5.9556,-5.9621,-5.9687,-5.9741,-5.9791,-5.9837,-5.9876,-5.9868,-5.9922,-5.9999,-6.0043,-6.013,-6.02,-6.0261,-6.028,-6.0244,-6.0241,-6.0264,-6.0268,-6.0266,-6.0266,-5.9968,-6.0232,-6.023,-6.0228,-6.0227,-6.0226,-5.9718,-5.9784,-5.9826,-5.99,-5.9935,-5.9981,-6.0043,-6.0057,-6.0122,-6.0193,-6.0183,-6.0269,-6.0308,-6.0387,-6.0413,-6.0479,-6.0442,-6.0476,-6.0484,-6.0492,-6.0501,-6.0261,-6.0491,-6.049,-6.0489,-6.0489,-6.0488,0,-5.9935,-5.9962,-6.0031,-6.0099,-6.0158,-6.0125,-6.0176,-6.0225,-6.0303,-6.0345,-6.0402,-6.0492,-6.0561,-6.058,-6.0646,-6.0696,-6.0681,-6.0714,-6.0707,-6.0712,-6.0531,-6.0503,-6.0725,-6.0725,-6.0725,-6.0725,-6.0724,-6.0724,-6.0055,-6.0165,-6.017,-6.0297,-6.0323,-6.0409,-6.0441,-6.0483,-6.0516,-6.0619,-6.0678,-6.0691,-6.0724,-6.0793,-6.0856,-6.0859,-6.0884,-6.0923,-6.0919,-6.0749,-6.0725,-6.0702,-6.0675,-6.0929,-6.093,-6.1094,-6.1096,-6.1097]},{"header":{"parameterUnit":"m.s-1","parameterCategory":1,"la1":30.2991,"la2":30.254,"lo1":-89.0895,"lo2":-89.0444,"dy":0.0017,"dx":0.0017,"nx":28,"ny":28,"refTime":"2023-10-27T03:00:00:Z","depth":0,"parameterNumber":3,"parameterNumberName":"V-component_of_WINDS"},"data":[0,0,0,0,0,0,0,0,0,0,0,0,0,0,0,0,0,0,0,0,0,0,0,0,0,0,0,0,0,0,0,0,0,0,0,0,0,0,0,0,0,0,0,0,0,0,0,0,0,0,0,0,0,0,0,0,0,0,1.714,1.7142,0,1.7271,1.7272,1.7274,1.7309,1.7308,1.7307,1.7306,1.7435,1.7439,1.7443,0,0,0,0,0,0,0,0,0,0,0,0,0,1.692,1.6924,1.714,1.7142,1.7143,1.727,1.7272,1.7274,1.7309,1.7308,1.7307,1.7306,1.7433,1.7438,1.7443,0,0,0,0,0,0,0,0,0,0,0,0,0,1.7029,1.6925,1.714,1.7176,1.7181,1.727,1.7272,1.7274,1.7309,1.7308,1.7307,1.7306,1.7432,1.7438,1.7444,1.7505,0,0,1.7463,1.7466,0,0,0,0,0,0,0,0,1.7023,1.7037,1.7169,1.7174,1.7179,1.7272,1.7242,1.7352,1.7309,1.726,1.7306,1.7305,1.7381,1.7392,1.7418,1.7511,1.7516,1.7463,1.7467,1.747,1.7472,0,0,0,0,0,0,0,1.7015,1.7032,1.7192,1.7171,1.7177,1.7186,1.72,1.7263,1.7325,1.7264,1.7267,1.7282,1.7384,1.7412,1.7422,1.7518,1.7463,1.7469,1.7473,1.7475,1.7672,1.7673,0,0,0,0,0,0,1.7002,1.7025,1.7187,1.7196,1.7097,1.7191,1.7207,1.7243,1.7325,1.7336,1.7283,1.7284,1.7402,1.7414,1.7426,1.7506,1.747,1.7476,1.7479,1.767,1.7672,1.7674,0,0,0,0,0,0,1.6997,1.7016,1.7182,1.7111,1.7133,1.7196,1.7237,1.7247,1.7275,1.7339,1.735,1.7301,1.7402,1.7418,1.7487,1.7511,1.7478,1.7484,1.7669,1.7671,1.7673,1.7663,0,0,0,0,0,0,1.6991,1.7014,1.7038,1.7112,1.7137,1.724,1.7238,1.725,1.7286,1.7288,1.7359,1.7369,1.7402,1.7477,1.7493,1.7519,1.7489,1.7667,1.767,1.7672,1.7662,1.7665,1.7668,0,0,0,0,0,1.6983,1.7028,1.7039,1.7058,1.7168,1.7242,1.7256,1.7294,1.7288,1.7313,1.7355,1.7367,1.7506,1.7484,1.7502,1.753,1.7665,1.7669,1.7672,1.7661,1.7665,1.7668,0,0,0,0,0,0,1.6952,1.7038,1.7051,1.7121,1.7175,1.7248,1.7279,1.7297,1.7351,1.735,1.7394,1.741,1.7476,1.751,1.7484,1.7595,1.7586,1.7593,1.7571,1.7575,1.7578,1.7568,1.7494,0,0,0,0,0,1.6954,1.7008,1.7079,1.7135,1.7161,1.7216,1.7249,1.7275,1.7331,1.7353,1.7399,1.7452,1.7508,1.7543,1.7598,1.7668,1.7685,1.7696,1.7699,1.7701,1.7707,1.7749,1.7756,1.7685,1.7685,1.7685,0,0,1.6957,1.7011,1.7041,1.713,1.7174,1.7229,1.7234,1.729,1.7332,1.736,1.743,1.7466,1.7528,1.7599,1.7632,1.7629,1.7731,1.7706,1.7707,1.7711,1.7754,1.776,1.7766,1.7688,1.7687,1.7687,0,0,1.6992,1.7037,1.709,1.7136,1.7204,1.7241,1.7254,1.7326,1.7352,1.7423,1.7447,1.7496,1.759,1.7635,1.767,1.7727,1.7741,1.7744,1.7759,1.78,1.7806,1.7811,1.7833,1.7841,1.7749,1.7749,1.7749,0,1.6987,1.7071,1.7114,1.7172,1.7211,1.7244,1.7298,1.7339,1.7421,1.7447,1.7443,1.7566,1.7609,1.7693,1.7707,1.7734,1.7751,1.7735,1.7802,1.7807,1.7813,1.7835,1.7843,1.7749,1.7749,1.7749,1.7749,0,1.7063,1.7122,1.7156,1.7238,1.7281,1.7336,1.7389,1.7427,1.7451,1.7488,1.7562,1.7616,1.7684,1.7706,1.7727,1.7793,1.779,1.7793,1.7784,1.7819,1.784,1.7849,1.7749,1.7749,1.7749,1.7749,0,0,1.7078,1.7188,1.7199,1.7239,1.7319,1.7365,1.7423,1.7492,1.7525,1.7582,1.7632,1.7714,1.772,1.7759,1.7787,1.7823,1.7868,1.7822,1.7825,1.783,1.7947,1.7945,1.7953,1.7879,1.7881,1.7882,1.7943,0,1.7124,1.723,1.7274,1.736,1.7416,1.745,1.7501,1.7556,1.7594,1.7647,1.7688,1.7747,1.7748,1.7773,1.781,1.7855,1.7892,1.7851,1.7926,1.7928,1.791,1.7964,1.7961,1.8015,1.7951,1.7952,1.7953,0,1.719,1.7251,1.7344,1.7422,1.7447,1.7492,1.7561,1.7611,1.7675,1.7701,1.7748,1.7774,1.7838,1.7826,1.7914,1.7885,1.7919,1.7946,1.7949,1.7958,1.7943,1.7975,1.8033,1.8042,1.7967,1.7966,1.7965,0,1.7194,1.7299,1.7369,1.7402,1.7493,1.7525,1.7564,1.7627,1.7668,1.7728,1.7756,1.7821,1.7858,1.7908,1.7953,1.794,1.8038,1.8029,1.8061,1.806,1.8079,1.8077,1.8144,1.81,1.81,1.81,1.81,0,1.724,1.7296,1.7373,1.7416,1.7481,1.7531,1.7593,1.7635,1.7692,1.7744,1.7776,1.7824,1.788,1.7935,1.797,1.804,1.8055,1.8078,1.8086,1.8075,1.8073,1.8098,1.8095,1.8102,1.8101,1.8101,1.8101,0,1.7255,1.7308,1.7388,1.747,1.7492,1.7536,1.7607,1.765,1.7692,1.7758,1.7776,1.7841,1.7908,1.7958,1.8044,1.8068,1.8143,1.8151,1.8122,1.8126,1.8156,1.8153,1.8242,1.8257,1.8201,1.8202,1.8202,0,1.7281,1.7325,1.7414,1.7453,1.7493,1.7554,1.7598,1.765,1.7693,1.7772,1.7807,1.7877,1.7936,1.8043,1.8097,1.8164,1.8175,1.8202,1.8185,1.8173,1.8177,1.8174,1.818,1.8203,1.8204,1.8204,1.8204,0,1.7322,1.7348,1.7409,1.7482,1.7533,1.7592,1.7651,1.7681,1.7744,1.7791,1.7862,1.7909,1.8,1.807,1.8143,1.8183,1.8205,1.821,1.8221,1.821,1.8192,1.8204,1.8129,1.8207,1.8207,1.8206,1.8206,1.8206,1.7344,1.7387,1.7458,1.7526,1.7578,1.7633,1.768,1.7729,1.779,1.787,1.7897,1.7972,1.8038,1.814,1.8181,1.824,1.824,1.8255,1.8259,1.8263,1.8263,1.8183,1.8253,1.8253,1.8253,1.8253,1.8253,0,1.7388,1.7437,1.75,1.7584,1.7639,1.7658,1.7726,1.777,1.7836,1.7897,1.7957,1.804,1.811,1.8171,1.8244,1.8279,1.8291,1.8297,1.8295,1.8304,1.8258,1.8242,1.8286,1.8286,1.8286,1.8286,1.8286,1.8286,1.7418,1.7493,1.7528,1.7629,1.7677,1.7752,1.779,1.7842,1.7892,1.7985,1.8045,1.8085,1.8148,1.8226,1.8291,1.8307,1.8333,1.8336,1.8355,1.8311,1.8307,1.8303,1.8288,1.8341,1.8341,1.8396,1.8397,1.8397]}]]